When you browse on this site, cookies collect data to enhance your experience and personalize the content and advertising you see.
Visit our Privacy Policy to learn more. By continuing to use the site, you agree to this use of cookies and data.
  • In Hungary
  • List of Countries
  • For 7 days
  • Water Temperature
  • Weather Map
  • News
  • Weather Widgets
  • user-avatar
    Login

    Hourly Weather Cartago

    Today, 22 November, Friday

    Time Temperature Precipitation Wind Pressure Humidity
    00:00 +19°C° 0 mm 1 mps 670 mmHg 94%
    01:00 +19°C° 0 mm 1 mps 670 mmHg 91%
    02:00 +19°C° 0 mm 1 mps 670 mmHg 89%
    03:00 +18°C° 0 mm 1 mps 669 mmHg 86%
    04:00 +18°C° 0 mm 1 mps 670 mmHg 86%
    05:00 +18°C° 0 mm 1 mps 670 mmHg 85%
    06:00 +18°C° 0 mm 1 mps 670 mmHg 84%
    07:00 +21°C° 0 mm 1 mps 671 mmHg 75%
    08:00 +24°C° 0 mm 1 mps 673 mmHg 66%
    09:00 +26°C° 0 mm 1 mps 674 mmHg 57%
    10:00 +27°C° 0 mm 1 mps 673 mmHg 57%
    11:00 +28°C° 0 mm 2 mps 673 mmHg 57%
    12:00 +28°C° 0 mm 2 mps 673 mmHg 57%
    13:00 +27°C° 0.1 mm 2 mps 672 mmHg 65%
    14:00 +26°C° 0.1 mm 2 mps 671 mmHg 73%
    15:00 +25°C° 0.1 mm 1 mps 670 mmHg 81%
    16:00 +24°C° 0.2 mm 1 mps 670 mmHg 87%
    17:00 +23°C° 0.2 mm 1 mps 670 mmHg 93%
    18:00 +20°C° 0.2 mm 0 mps 670 mmHg 98%
    19:00 +19°C° 0.1 mm 0 mps 671 mmHg 98%
    20:00 +19°C° 0.1 mm 0 mps 671 mmHg 97%
    21:00 +19°C° 0.1 mm 0 mps 672 mmHg 97%
    22:00 +21°C° 0 mm 1 mps 671 mmHg 96%
    23:00 +20°C° 0 mm 1 mps 671 mmHg 96%

    Tomorrow, 23 November, Saturday

    Time Temperature Precipitation Wind Pressure Humidity
    00:00 +19°C° 0 mm 1 mps 670 mmHg 96%
    01:00 +19°C° 0 mm 1 mps 670 mmHg 94%
    02:00 +19°C° 0 mm 1 mps 669 mmHg 91%
    03:00 +18°C° 0 mm 1 mps 669 mmHg 89%
    04:00 +18°C° 0 mm 1 mps 669 mmHg 88%
    05:00 +18°C° 0 mm 1 mps 670 mmHg 87%
    06:00 +18°C° 0 mm 1 mps 670 mmHg 86%
    07:00 +21°C° 0 mm 1 mps 671 mmHg 78%
    08:00 +24°C° 0 mm 1 mps 672 mmHg 70%
    09:00 +26°C° 0 mm 1 mps 673 mmHg 62%
    10:00 +27°C° 0 mm 1 mps 673 mmHg 61%
    11:00 +27°C° 0 mm 2 mps 673 mmHg 61%
    12:00 +28°C° 0 mm 2 mps 672 mmHg 61%
    13:00 +27°C° 0.3 mm 2 mps 671 mmHg 68%
    14:00 +26°C° 0.3 mm 2 mps 671 mmHg 75%
    15:00 +25°C° 0.3 mm 1 mps 670 mmHg 81%
    16:00 +24°C° 0.1 mm 1 mps 670 mmHg 87%
    17:00 +22°C° 0.1 mm 1 mps 670 mmHg 92%
    18:00 +19°C° 0.1 mm 0 mps 670 mmHg 97%
    19:00 +21°C° 0 mm 1 mps 670 mmHg 97%
    20:00 +21°C° 0 mm 1 mps 671 mmHg 96%
    21:00 +20°C° 0 mm 1 mps 671 mmHg 96%
    22:00 +20°C° 0 mm 1 mps 671 mmHg 94%
    23:00 +19°C° 0 mm 1 mps 670 mmHg 92%

    Day after tomorrow, 24 November, Sunday

    Time Temperature Precipitation Wind Pressure Humidity
    00:00 +19°C° 0 mm 1 mps 670 mmHg 91%
    01:00 +19°C° 0 mm 1 mps 670 mmHg 89%
    02:00 +18°C° 0 mm 1 mps 669 mmHg 88%
    03:00 +18°C° 0 mm 1 mps 669 mmHg 86%
    04:00 +18°C° 0 mm 1 mps 669 mmHg 86%
    05:00 +18°C° 0 mm 1 mps 670 mmHg 86%
    06:00 +18°C° 0 mm 1 mps 670 mmHg 86%
    07:00 +21°C° 0 mm 1 mps 671 mmHg 77%
    08:00 +24°C° 0 mm 1 mps 672 mmHg 68%
    09:00 +26°C° 0 mm 1 mps 673 mmHg 60%
    10:00 +27°C° 0 mm 2 mps 672 mmHg 58%
    11:00 +27°C° 0 mm 2 mps 672 mmHg 57%
    12:00 +28°C° 0 mm 2 mps 672 mmHg 55%
    13:00 +27°C° 0.1 mm 2 mps 671 mmHg 62%
    14:00 +26°C° 0.1 mm 2 mps 670 mmHg 68%
    15:00 +25°C° 0.1 mm 2 mps 669 mmHg 74%
    16:00 +24°C° 0.2 mm 1 mps 669 mmHg 82%
    17:00 +22°C° 0.2 mm 1 mps 669 mmHg 89%
    18:00 +21°C° 0.2 mm 1 mps 669 mmHg 97%
    19:00 +21°C° 0 mm 1 mps 669 mmHg 96%
    20:00 +20°C° 0 mm 1 mps 670 mmHg 96%
    21:00 +20°C° 0 mm 1 mps 670 mmHg 96%
    22:00 +20°C° 0 mm 1 mps 670 mmHg 95%
    23:00 +20°C° 0 mm 1 mps 669 mmHg 94%

    25 November, Monday

    Time Temperature Precipitation Wind Pressure Humidity
    00:00 +19°C° 0 mm 1 mps 669 mmHg 93%
    01:00 +19°C° 0 mm 1 mps 669 mmHg 92%
    02:00 +19°C° 0 mm 1 mps 668 mmHg 92%
    03:00 +19°C° 0 mm 1 mps 668 mmHg 92%
    04:00 +19°C° 0 mm 1 mps 668 mmHg 92%
    05:00 +19°C° 0 mm 1 mps 669 mmHg 92%
    06:00 +19°C° 0 mm 1 mps 669 mmHg 92%
    07:00 +21°C° 0 mm 1 mps 670 mmHg 86%
    08:00 +23°C° 0 mm 1 mps 670 mmHg 80%
    09:00 +25°C° 0 mm 1 mps 671 mmHg 74%
    10:00 +25°C° 0.2 mm 1 mps 671 mmHg 74%
    11:00 +26°C° 0.2 mm 1 mps 670 mmHg 74%
    12:00 +26°C° 0.2 mm 2 mps 670 mmHg 75%
    13:00 +25°C° 0.7 mm 1 mps 669 mmHg 80%
    14:00 +24°C° 0.7 mm 1 mps 669 mmHg 86%
    15:00 +24°C° 0.7 mm 1 mps 668 mmHg 91%
    16:00 +23°C° 0.3 mm 1 mps 668 mmHg 93%
    17:00 +22°C° 0.3 mm 1 mps 668 mmHg 96%
    18:00 +21°C° 0.3 mm 1 mps 668 mmHg 98%
    19:00 +21°C° 0 mm 1 mps 669 mmHg 97%
    20:00 +21°C° 0 mm 1 mps 669 mmHg 97%
    21:00 +20°C° 0 mm 1 mps 669 mmHg 96%
    22:00 +20°C° 0 mm 1 mps 669 mmHg 96%
    23:00 +20°C° 0 mm 1 mps 669 mmHg 96%

    26 November, Tuesday

    Time Temperature Precipitation Wind Pressure Humidity
    00:00 +20°C° 0 mm 1 mps 669 mmHg 95%
    01:00 +20°C° 0 mm 1 mps 668 mmHg 95%
    02:00 +19°C° 0 mm 1 mps 668 mmHg 95%
    03:00 +19°C° 0 mm 1 mps 668 mmHg 95%
    04:00 +19°C° 0 mm 1 mps 668 mmHg 95%
    05:00 +19°C° 0 mm 1 mps 669 mmHg 94%
    06:00 +19°C° 0 mm 1 mps 669 mmHg 94%
    07:00 +22°C° 0 mm 1 mps 670 mmHg 86%
    08:00 +24°C° 0 mm 1 mps 671 mmHg 77%
    09:00 +26°C° 0 mm 1 mps 672 mmHg 69%
    10:00 +27°C° 0.1 mm 1 mps 671 mmHg 67%
    11:00 +27°C° 0.1 mm 2 mps 671 mmHg 65%
    12:00 +28°C° 0.1 mm 2 mps 671 mmHg 64%
    13:00 +27°C° 0.5 mm 2 mps 670 mmHg 71%
    14:00 +26°C° 0.5 mm 2 mps 669 mmHg 78%
    15:00 +25°C° 0.5 mm 1 mps 669 mmHg 85%
    16:00 +24°C° 0.3 mm 1 mps 669 mmHg 89%
    17:00 +23°C° 0.3 mm 1 mps 669 mmHg 93%
    18:00 +22°C° 0.3 mm 1 mps 669 mmHg 98%
    19:00 +21°C° 0 mm 1 mps 669 mmHg 97%
    20:00 +21°C° 0 mm 1 mps 669 mmHg 96%
    21:00 +21°C° 0 mm 1 mps 670 mmHg 96%
    22:00 +20°C° 0 mm 1 mps 669 mmHg 95%
    23:00 +20°C° 0 mm 1 mps 669 mmHg 94%

    27 November, Wednesday

    Time Temperature Precipitation Wind Pressure Humidity
    00:00 +20°C° 0 mm 1 mps 669 mmHg 93%
    01:00 +20°C° 0 mm 1 mps 669 mmHg 92%
    02:00 +20°C° 0 mm 1 mps 669 mmHg 92%
    03:00 +20°C° 0 mm 1 mps 668 mmHg 92%
    04:00 +20°C° 0 mm 1 mps 669 mmHg 92%
    05:00 +20°C° 0 mm 1 mps 669 mmHg 92%
    06:00 +21°C° 0 mm 1 mps 669 mmHg 92%
    07:00 +22°C° 0 mm 1 mps 670 mmHg 89%
    08:00 +23°C° 0 mm 1 mps 671 mmHg 87%
    09:00 +22°C° 0 mm 0 mps 671 mmHg 85%
    10:00 +25°C° 0.2 mm 1 mps 671 mmHg 82%
    11:00 +26°C° 0.2 mm 1 mps 671 mmHg 79%
    12:00 +27°C° 0.2 mm 1 mps 670 mmHg 76%
    13:00 +26°C° 0.6 mm 1 mps 670 mmHg 80%
    14:00 +26°C° 0.6 mm 1 mps 669 mmHg 84%
    15:00 +25°C° 0.6 mm 1 mps 669 mmHg 87%
    16:00 +24°C° 0.3 mm 1 mps 669 mmHg 91%
    17:00 +23°C° 0.3 mm 1 mps 669 mmHg 94%
    18:00 +22°C° 0.3 mm 1 mps 669 mmHg 97%
    19:00 +22°C° 0 mm 1 mps 670 mmHg 97%
    20:00 +22°C° 0 mm 1 mps 670 mmHg 97%
    21:00 +22°C° 0 mm 1 mps 670 mmHg 96%
    22:00 +22°C° 0.1 mm 1 mps 670 mmHg 96%
    23:00 +22°C° 0.1 mm 1 mps 670 mmHg 96%
    Show more